Regional Weather Roundup
Issued by NWS

Home | Current Version | Previous Version | Text Only | Print | Product List | Glossary On
Versions: 1 2 3 4 5 6 7 8 9 10 11 12 13 14 15 16 17 18 19 20 21 22 23 24 25 26 27 28 29 30 31 32 33 34 35 36 37 38 39 40 41 42 43 44 45 46 47 48 49 50
000
ASHW40 PHFO 171112
RWRHI

WEATHER ROUNDUP FOR HAWAII
NATIONAL WEATHER SERVICE HONOLULU HI
100 AM HST WED JAN 17 2018

THIS IS AN AUTOMATED REPORT THAT HAS NOT BEEN QUALITY CONTROLLED.

NOTE..."FAIR" INDICATES FEW OR NO CLOUDS BELOW 12,000 FEET WITH NO
SIGNIFICANT WEATHER AND/OR OBSTRUCTIONS TO VISIBILITY.

* - THESE SITES REPORT LIMITED FIELDS
# - BUOY DATA PROVIDED BY PACIFIC ISLANDS OCEAN OBSERVING SYSTEM.

HIZ001>004-171200-
KAUAI-NIIHAU-

CITY           SKY/WX    TMP DP  RH WIND       PRES   REMARKS
LIHUE APT      CLOUDY    73  66  78 NE17      30.18F
PORT ALLEN*      N/A     73 N/A N/A NE12G22     N/A
POIPU*           N/A     72 N/A N/A NE8G16      N/A
PRINCEVILLE*     N/A     70 N/A N/A SE5         N/A
KOKOLE POINT*  NOT AVBL
MOLOAA DAIRY*    N/A     72  64  78 E1G9        N/A
WAIMEA HTS*    NOT AVBL
PUU OPAE*      NOT AVBL
PUU LUA*       NOT AVBL
MAKAHA RIDGE*  NOT AVBL
$$

HIZ005>011-171200-
OAHU-

CITY           SKY/WX    TMP DP  RH WIND       PRES   REMARKS
HONOLULU       MOCLDY    75  61  61 NE8       30.16F
KALAELOA       PTCLDY    70  61  73 NE6       30.16F
KANEOHE MCB    PTCLDY    74  66  76 NE13      30.15F
WHEELER FIELD  NOT AVBL
BELLOWS*       NOT AVBL
KAHUKU*        NOT AVBL
WHEELER*       NOT AVBL
WAIANAE HARBOR NOT AVBL
DILLINGHAM*    NOT AVBL
KAHUKU TRN*      N/A     70  63  78 W10G18      N/A
KAWAILOA*        N/A     66  61  82 NE6G17      N/A
KII*             N/A     73  64  73 NE17        N/A
MAKUA RANGE*     N/A     72  59  64 W7G15       N/A
OAHU FOREST NW NOT AVBL
SCHOFIELD BRK*   N/A     64  61  88 MISG        N/A
SCHOFIELD S*   NOT AVBL
WAIANAE VLY*   NOT AVBL
KUAOKALA*      NOT AVBL
HONOULIUULI*   NOT AVBL
MOKUOLOE IS*   NOT AVBL
PALEHUA*       NOT AVBL
WAIAWA PHB*    NOT AVBL
$$

HIZ012>013-171200-
MOLOKAI-

CITY           SKY/WX    TMP DP  RH WIND       PRES   REMARKS
MOLOKAI AIRPT    N/A    N/A N/A N/A MISG        N/A
KALAUPAPA      NOT AVBL
MAKAPULAPAI*   NOT AVBL
MOLOKAI 1*     NOT AVBL
PUU ALII*      NOT AVBL
$$

HIZ016-171200-
KAHOOLAWE-

CITY           SKY/WX    TMP DP  RH WIND       PRES   REMARKS
KAHOOLAWE*     NOT AVBL
HAKIOAWA*      NOT AVBL
HONOKANAIA*    NOT AVBL
KANELOA*         N/A     70  63  78 VRB15G30  30.18F
KEALIALALO*    NOT AVBL
LUA MAKIKA*    NOT AVBL
$$

HIZ014>015-171200-
LANAI-

CITY           SKY/WX    TMP DP  RH WIND       PRES   REMARKS
LANAI CITY     FAIR      68  62  81 NE16G26   30.16F
LANAI 1*       NOT AVBL
$$

HIZ017>028-171200-
MAUI-

CITY           SKY/WX    TMP DP  RH WIND       PRES   REMARKS
KAHULUI        CLEAR     72  63  73 NE9       30.15F
KAPALUA-W MAUI NOT AVBL
HANA AIRPORT     N/A     73  73 100 NE7       30.20S
HANA*            N/A     75 N/A N/A NE8         N/A
HALEAKALA SUMM   N/A     41  16  36 E26         N/A
MAALAEA BAY*   NOT AVBL
HALEAKALA*     NOT AVBL
KAUPO GAP*     NOT AVBL
KULA 1*          N/A    N/A N/A N/A NE5         N/A
$$

HIZ023>026-171200-
BIG ISLAND OF HAWAII COAST AND LOWER SLOPES-

CITY           SKY/WX    TMP DP  RH WIND       PRES   REMARKS
KAILUA KONA    PTCLDY    74  58  57 NE16G25   30.08F
HILO           MOCLDY    68  61  78 SW5       30.15F
HONOKAA*         N/A     66 N/A N/A VRB1        N/A
KAWAIHAE MWT*    N/A     72 N/A N/A E2G9        N/A
KAWAIHAE*      NOT AVBL
SOUTH POINT*     N/A     64 N/A N/A W8          N/A
UPOLU AIRPORT* NOT AVBL
KAMUELA*       CLOUDY    61  61 100 NE21G32   30.17F
HAKALAU*         N/A    N/A N/A N/A W5G10       N/A
KALOKO-HONOKO* NOT AVBL
PALI 2*          N/A     61  55  82 S18G28      N/A
KEALAKOMO*       N/A    N/A N/A N/A N21G40      N/A
KAUPULEHU*     NOT AVBL
KAPAPALA*        N/A     53  51  91 VRB3G9      N/A
LOWER KAHUKU*  NOT AVBL
PUHE CS*       NOT AVBL
PUHO CS*       NOT AVBL
PTA KEAMUKU*     N/A     54  46  76 E10G26      N/A
WAIKOLOA*      NOT AVBL
$$

HIZ027>028-171200-
BIG ISLAND OF HAWAII INTERIOR AND SUMMMITS-

CITY           SKY/WX    TMP DP  RH WIND       PRES   REMARKS
BRADSHAW FIELD NOT AVBL
MK VISITOR CEN   N/A     50   1  13 E15         N/A
MAUNA KEA*       N/A     34 -22   8 NE17        N/A  WCI  23
MAUNA LOA*       N/A    N/A N/A N/A MISG        N/A
MAUNA LOA 1*   NOT AVBL
PTA KIPUKA*      N/A     70  34  26 NE3G13      N/A
PTA RANGE 17*    N/A     75  34  22 NW14G26     N/A
PTA WEST*      NOT AVBL
NENE CABIN*    NOT AVBL
AHUMOA*        NOT AVBL
PTA PORTABLE*  NOT AVBL
PUU MALI*        N/A     57  14  18 E21G33      N/A
$$

HIC003-171200-
NORTHWEST ISLANDS-

CITY           SKY/WX    TMP DP  RH WIND       PRES   REMARKS
MIDWAY ISLAND  LGT RAIN  66  61  82 E23G29    30.13F
MIDWAY NOS*    NOT AVBL
FRENCH FRIGATE NOT AVBL
$$

PHZ110>124-180-171200-
BUOY REPORTS

STATION/POSITION TIME  TEMP    WIND        PRES    WAVE   SWELL
                       AIR SEA DIR/SP/G            HT/PER HT/DIR
                 (UTC) (F)     (DEG/KT/KT) (MB)    (FT/S) (FT/D)
BUOY 51001       1050   75 76   90/ 17/ 23 1020.4F   8/13   5
BUOY 51101       1050   71 74   50/ 21/ 25 1023.2F  13/13  11/340
BUOY 51100       NOT AVBL
BUOY 51002       1050   77 78   60/ 17/ 23 1017.7F   9/13   5/350
BUOY 51003       1050   76 77   50/ 19/ 21 1018.9F   9/13   7/350
BUOY 51004       1050   76 77   60/ 17/ 23 1017.9F  10/14   7/350
WAIMEA BAY#      1032      75                N/A     7/13   5/320
MOKAPU POINT#    1004      76                N/A     6/12   3/350
LANAI#           NOT AVBL
BARBERS PT 2#    NOT AVBL
PAUWELA#         1030      76                N/A     8/12   7/340
HILO#            1057      76                N/A     8/14   5/340
KANEOHE BAY#     NOT AVBL
KANEOHE BAY 2#   NOT AVBL
HANALEI#         1052      76                N/A     8/13   7/320
KAHULUI HARBOR   1042   75 76   40/ 12/ 17 1021.1F
HONOLULU HARBOR  1048   74 76   50/  5/ 10 1020.8F
PEARL HARBOR#    1030      76                N/A     3/ 7
KILO NALU        NOT AVBL
HILO HARBOR      1042   69 76  220/  2/  3 1020.9F
MOKUOLOE         1036   74 76   60/ 11/ 16 1021.8F
NAWILIWILI       1048   73      20/  9/ 12 1022.1F
WHOTS BUOY       NOT AVBL
BUOY 51028       NOT AVBL
$$

......................KEY........................................
  SKY/WX - SKY CONDITIONS/PRESENT WEATHER
  TMP    - TEMPERATURE IN FAHRENHEIT
  DWPT   - DEWPOINT IN FAHRENHEIT
  RH     - RELATIVE HUMIDITY IN PERCENT
  WIND   - DIRECTION AND SPEED /MPH FOR ISLANDS...KTS FOR BUOYS/
  PRES   - MEAN SEA LEVEL PRESSURE IN INCHES OF HG
  VSB    - VISIBILITY IN MILES
  HX     - HEAT INDEX
  WCI    - WIND CHILL INDEX
  VRB    - VARIABLE WIND DIRECTION
  N/A    - NOT AVAILABLE



USA.gov is the U.S. government's official web portal to all federal, state and local government web resources and services.